sat.trackr.live / text

‹ back to catalog

STARLINK-31389

NORAD 59013 · 2024-036R

PAYLOAD ACTIVE UNKNOWN

§ Identity

Operator
Country
US
Launch date
2024-02-23
Launch site
AFWTR
Launch vehicle
Mass (kg)
RCS (m²)

Purposes: comms

External: N2YO · Heavens-Above · Gunter

§ Orbital elements

Epoch: 2026-05-25T05:00:29.450016Z

Period
94.11 min
Inclination
53.1609°
Eccentricity
0.0001264
Mean motion
15.30174813 rev/d
Perigee alt
474.4 km
Apogee alt
476.2 km
Semi-major
6,853.4 km
B*
1.2372e-4
RAAN
83.0550°
Arg perigee
102.5670°
Mean anomaly
257.5473°
Rev number
12,704

§ Raw data

STARLINK-313891 59013U 24036R   26145.20867419  .00003304  00000+0  12372-3 0  99952 59013  53.1609  83.0550 0001264 102.5670 257.5473 15.30174813127049

JSON: /api/v1/satellites/59013 · /tle

For live sub-satellite position, see the globe view (requires WebGL).

§ Visibility from observer

Set your observer location to see the next 7 days of passes ≥ 10°. The values pass through the URL so the page stays shareable.

No JS? Fill the form by hand. The geolocation button needs JavaScript.